Weather History for Molokai, HI

Change the Weather History Date:

Saturday, June 22, 2013

  Actual Average Record
Temperature  
Mean Temperature 76 °F -  
Max Temperature 81 °F 83 °F 89 °F (1982)
Min Temperature 71 °F 70 °F 66 °F (1973)
Cooling Degree Days 11    
Growing Degree Days 26 (Base 50)    
Moisture  
Dew Point 69 °F    
Average Humidity 84    
Maximum Humidity 96    
Minimum Humidity 62    
Precipitation  
Precipitation 0.02 in - - ()
Sea Level Pressure  
Sea Level Pressure 30.08 in    
Wind  
Wind Speed 16 mph (NE)    
Max Wind Speed 25 mph    
Max Gust Speed 37 mph    
Visibility 9 miles    
Events Rain    
Averages and records for this station are not official NWS values.
T = Trace of Precipitation, MM = Missing Value Source: NWS Daily Summary

Daily Weather History Graph

Daily Weather History Graph

Search for Another Location

Airport:

Trip Planner

Search our weather history database for the weather conditions in past years. The results will help you decide how hot, cold, wet, or windy it might be!

Date:

Astronomy

Jun. 22, 2013 Rise Set
Actual Time 5:47 AM HST 7:13 PM HST
Civil Twilight 5:23 AM HST 7:37 PM HST
Nautical Twilight 4:53 AM HST 8:07 PM HST
Astronomical Twilight 4:22 AM HST 8:38 PM HST
Moon 6:46 PM HST (6/22) 5:05 AM HST (6/22)
Length of Visible Light 14h 14m
Length of Day
13h 25m
Full, 100% of the Moon is Illuminated
Jun 22
Full
Jun 23
Full
Jun 29
Last Quarter
Jul 7
New
Jul 15
First Quarter

Hourly Weather History & Observations

Time (HST) Temp. Heat Index Dew Point Humidity Pressure Visibility Wind Dir Wind Speed Gust Speed Precip Events Conditions
12:54 AM 72.0 °F - 66.9 °F 84% 30.07 in 10.0 mi NE 19.6 mph 25.3 mph N/A   Partly Cloudy
1:54 AM 72.0 °F - 69.1 °F 91% 30.05 in 9.0 mi NE 16.1 mph 23.0 mph 0.00 in Rain Light Rain
2:54 AM 71.1 °F - 66.9 °F 87% 30.04 in 10.0 mi NE 10.4 mph 23.0 mph 0.00 in   Scattered Clouds
3:54 AM 71.1 °F - 66.9 °F 87% 30.04 in 10.0 mi NE 13.8 mph 23.0 mph 0.00 in   Scattered Clouds
4:54 AM 72.0 °F - 68.0 °F 87% 30.04 in 10.0 mi NE 12.7 mph 23.0 mph 0.00 in   Mostly Cloudy
5:54 AM 72.0 °F - 66.9 °F 84% 30.05 in 10.0 mi NNE 12.7 mph 19.6 mph 0.00 in   Scattered Clouds
6:54 AM 71.1 °F - 69.1 °F 93% 30.07 in 7.0 mi NE 15.0 mph 25.3 mph 0.01 in Rain Light Rain
7:54 AM 73.9 °F - 66.9 °F 79% 30.09 in 10.0 mi NE 11.5 mph 21.9 mph 0.00 in   Scattered Clouds
8:54 AM 73.9 °F - 68.0 °F 82% 30.09 in 10.0 mi NE 23.0 mph 34.5 mph N/A   Scattered Clouds
9:54 AM 79.0 °F - 64.9 °F 62% 30.08 in 10.0 mi NE 17.3 mph 26.5 mph N/A   Clear
10:54 AM 80.1 °F 82.3 °F 66.9 °F 64% 30.08 in 10.0 mi NE 24.2 mph 36.8 mph N/A   Scattered Clouds
11:54 AM 81.0 °F 83.3 °F 66.9 °F 62% 30.09 in 10.0 mi NE 25.3 mph 33.4 mph N/A   Partly Cloudy
12:54 PM 75.0 °F - 70.0 °F 84% 30.09 in 7.0 mi NE 15.0 mph 27.6 mph 0.00 in Rain Light Rain
1:54 PM 79.0 °F - 68.0 °F 69% 30.07 in 10.0 mi NE 18.4 mph 31.1 mph 0.00 in Rain Light Rain
2:08 PM 77.0 °F - 69.8 °F 78% 30.07 in 9.0 mi NE 15.0 mph 26.5 mph 0.00 in Rain Light Rain
2:15 PM 73.4 °F - 69.8 °F 88% 30.06 in 7.0 mi NE 16.1 mph 26.5 mph 0.00 in Rain Light Rain
2:54 PM 75.0 °F - 69.1 °F 82% 30.07 in 9.0 mi NE 15.0 mph 29.9 mph 0.00 in Rain Light Rain
3:54 PM 77.0 °F - 69.1 °F 76% 30.05 in 10.0 mi NE 17.3 mph 31.1 mph 0.00 in   Scattered Clouds
4:54 PM 77.0 °F - 70.0 °F 79% 30.06 in 10.0 mi NE 16.1 mph 24.2 mph N/A   Scattered Clouds
5:54 PM 75.0 °F - 69.1 °F 82% 30.07 in 9.0 mi NE 18.4 mph 26.5 mph 0.00 in Rain Light Rain
6:54 PM 71.1 °F - 70.0 °F 96% 30.09 in 9.0 mi NE 15.0 mph 23.0 mph 0.00 in   Scattered Clouds
7:54 PM 71.1 °F - 70.0 °F 96% 30.10 in 8.0 mi NNE 11.5 mph 20.7 mph 0.00 in Rain Light Rain
8:54 PM 72.0 °F - 69.1 °F 91% 30.12 in 10.0 mi NNE 15.0 mph 20.7 mph 0.00 in   Partly Cloudy
9:54 PM 72.0 °F - 69.1 °F 91% 30.13 in 10.0 mi NNE 12.7 mph 19.6 mph 0.00 in   Partly Cloudy
10:52 PM 71.6 °F - 69.8 °F 94% 30.13 in 10.0 mi NE 15.0 mph 21.9 mph 0.01 in   Mostly Cloudy
10:54 PM 72.0 °F - 70.0 °F 93% 30.14 in 10.0 mi NE 12.7 mph 21.9 mph 0.01 in   Mostly Cloudy
11:30 PM 71.6 °F - 69.8 °F 94% 30.13 in 10.0 mi NE 10.4 mph 23.0 mph 0.00 in   Scattered Clouds
11:54 PM 72.0 °F - 70.0 °F 93% 30.14 in 10.0 mi NE 12.7 mph 19.6 mph 0.00 in Rain Light Rain